FENGYUN 1C DEB, 37433

Orbit data source: Space-Track

FENGYUN 1C DEB, 37433 is space debris in SSO originally from a launch on Mon, 10 May 1999 UTC launched from the Taiyaun Space Center, China (TSC). Fengyun 1C debris stems from the Chinese weather satellite Fengyun-1C, which was intentionally destroyed by a Chinese anti-satellite missile in 2007. This event dramatically increased the amount of space debris, with thousands of trackable fragments posing hazards to satellites and human spaceflight. The Fengyun 1C debris cloud has become a focal point in discussions about space sustainability and the need for international regulations to prevent the creation of new debris.

Loading next visibility...
Identifier
37433, 1999-025EHB
Orbit
SSO
Country
Flag of CNCN / PRC
Related business
Manufacturer
Unknown
Mission
Spacecraft
Bus & Motor
Unknown
Mass
Unknown
Launch date (UTC)
1999-05-10 (27 years ago)
Launch vehicle
Unknown
Launch site
Taiyaun Space Center, China (TSC)
Object type
Payload
Rocket body
Debris
Shape & HBR
Unknown shape, 0.1 m
Radar Cross Section
Small (<0.1 m²)

Expand to show TLE details & history
Last TLE update: 1 week ago

TLE from 1 week ago
0 FENGYUN 1C DEB
1 37433U 99025EHB 26247.32102672  .00003782  00000-0  17940-2 0  9992
2 37433  98.0897  65.7986 0206536 168.3235 192.2836 14.09453095274738
Epoch: 2026-09-04T07:42Z
TLE epoch observation values (Epoch: 2026-09-04T07:42:16.708Z)
Latitude
0.00002°
Longitude
-33.21755°
Altitude
1,010.426 km
Speed
7.272 km/s
True Right ascension
04h 23m 11s
True Declination
0° 00' 00"
Sunlit
Object was in daylight at epoch
Visualization orbit readout
Latitude
Unknown
Longitude
Unknown
Altitude
Unknown
Speed
Unknown
Apparent Right ascension
Unknown
Apparent Declination
Unknown
Sunlit
N/A
Visualization observer readout
Local Sidereal Time
00:52:47
Azimuth
Unknown
Elevation
Unknown
Doppler factor
Unknown
Orbital elements
Apogee altitude
1,007.846 km
Perigee altitude
708.926 km
Semi-major axis
7,236.523 km
Eccentricity
0.02065
Inclination
98.0897°
RAAN
65.7986°
Arg. of periapsis
168.3235°
True anomaly
191.79248°
Mean anomaly
192.2836°
Eccentric anomaly
192.03682°
Mean motion
3.52572 °/min
Orbital period
102.11 mins
BSTAR
0.001794
Loading maneuver chart data...
Computing Atmospheric mass density...
Loading historical data...
Loading historical data...
Loading historical data...
Loading historical data...
Loading historical data...
Loading historical data...
Loading historical data...

Documentation

Showing up to 5 results
|